Wichita Jabara, KS

10:53 AM CDT on July 23, 2017 (GMT -0500)
Col Jabara

Weather History for KAAO - October, 2012

Change the Weather History Date:

Monday, October 8, 2012

  Actual Average (KIAB) Record (KIAB)
Temperature  
Mean Temperature 51 °F -  
Max Temperature 66 °F 70 °F 88 °F (2010)
Min Temperature 36 °F 49 °F 28 °F (2000)
Degree Days  
Heating Degree Days 14    
Growing Degree Days 1 (Base 50)    
Moisture  
Dew Point 33 °F    
Average Humidity 52    
Maximum Humidity 79    
Minimum Humidity 30    
Precipitation  
Precipitation 0.00 in - - ()
Sea Level Pressure  
Sea Level Pressure 30.07 in    
Wind  
Wind Speed 12 mph (SSW)    
Max Wind Speed 20 mph    
Max Gust Speed 28 mph    
Visibility 10 miles    
Events      
Averages and records for this station are not official NWS values.
T = Trace of Precipitation, MM = Missing Value Source: NWS Daily Summary

Daily Weather History Graph

Daily Weather History Graph

Search for Another Location

Airport or City:

Trip Planner

Search our weather history database for the weather conditions in past years. The results will help you decide how hot, cold, wet, or windy it might be!

Date:

Astronomy

Oct. 08, 2012 Rise Set
Actual Time 7:31 AM CDT 7:00 PM CDT
Civil Twilight 7:04 AM CDT 7:26 PM CDT
Nautical Twilight 6:34 AM CDT 7:57 PM CDT
Astronomical Twilight 6:04 AM CDT 8:27 PM CDT
Moon 12:19 AM CDT (10/8) 2:44 PM CDT (10/8)
Length of Visible Light 12h 21m
Length of Day
11h 29m
Last Quarter, 46% of the Moon is Illuminated
Oct 8
Last Quarter
Oct 15
New
Oct 21
First Quarter
Oct 29
Full
Nov 6
Last Quarter

Hourly Weather History & Observations

Time (CDT) Temp. Windchill Dew Point Humidity Pressure Visibility Wind Dir Wind Speed Gust Speed Precip Events Conditions
12:54 AM 42.1 °F 36.1 °F 28.0 °F 58% 30.18 in 10.0 mi WSW 10.4 mph - N/A   Clear
1:54 AM 41.0 °F 34.3 °F 28.9 °F 62% 30.18 in 10.0 mi SW 11.5 mph - N/A   Clear
2:54 AM 39.9 °F 33.9 °F 28.9 °F 65% 30.17 in 10.0 mi SW 9.2 mph - N/A   Clear
3:54 AM 39.0 °F 34.0 °F 28.9 °F 67% 30.15 in 10.0 mi SW 6.9 mph - N/A   Clear
4:54 AM 37.9 °F 32.1 °F 28.9 °F 70% 30.15 in 10.0 mi SW 8.1 mph - N/A   Clear
5:54 AM 37.0 °F 30.4 °F 28.9 °F 73% 30.15 in 10.0 mi SSW 9.2 mph - N/A   Clear
6:54 AM 37.0 °F 30.4 °F 28.9 °F 73% 30.15 in 10.0 mi SSW 9.2 mph - N/A   Clear
7:54 AM 36.0 °F 29.0 °F 30.0 °F 79% 30.14 in 10.0 mi SSW 9.2 mph - N/A   Clear
8:54 AM 42.1 °F 35.2 °F 30.9 °F 65% 30.14 in 10.0 mi SSW 12.7 mph - N/A   Clear
9:54 AM 48.0 °F - 33.1 °F 56% 30.14 in 10.0 mi SSW 13.8 mph - N/A   Clear
10:54 AM 53.1 °F - 34.0 °F 48% 30.12 in 10.0 mi SSW 15.0 mph - N/A   Clear
11:54 AM 57.0 °F - 35.1 °F 44% 30.10 in 10.0 mi SSW 18.4 mph - N/A   Clear
12:54 PM 61.0 °F - 35.1 °F 38% 30.07 in 10.0 mi SSW 19.6 mph 25.3 mph N/A   Clear
1:54 PM 64.0 °F - 35.1 °F 34% 30.03 in 10.0 mi SSW 18.4 mph 26.5 mph N/A   Clear
2:54 PM 66.0 °F - 35.1 °F 32% 30.00 in 10.0 mi SSW 19.6 mph 27.6 mph N/A   Clear
3:54 PM 66.9 °F - 35.1 °F 31% 29.97 in 10.0 mi South 18.4 mph 26.5 mph N/A   Clear
4:54 PM 66.0 °F - 34.0 °F 30% 29.96 in 10.0 mi South 16.1 mph 24.2 mph N/A   Clear
5:54 PM 64.0 °F - 34.0 °F 33% 29.95 in 10.0 mi South 16.1 mph 23.0 mph N/A   Clear
6:54 PM 61.0 °F - 34.0 °F 36% 29.96 in 10.0 mi South 17.3 mph 23.0 mph N/A   Clear
8:54 PM 55.9 °F - 36.0 °F 47% 29.99 in 10.0 mi South 16.1 mph - N/A   Clear
9:54 PM 54.0 °F - 36.0 °F 51% 29.98 in 10.0 mi South 13.8 mph - N/A   Clear
10:54 PM 53.1 °F - 36.0 °F 52% 29.98 in 10.0 mi South 13.8 mph - N/A   Clear
11:54 PM 51.1 °F - 36.0 °F 56% 29.98 in 10.0 mi South 10.4 mph - N/A   Clear